Regional Weather Roundup
Issued by NWS

Home | Current Version | Previous Version | Text Only | Print | Product List | Glossary On
Versions: 1 2 3 4 5 6 7 8 9 10 11 12 13 14 15 16 17 18 19 20 21 22 23 24 25 26 27 28 29 30 31 32 33 34 35 36 37 38 39 40 41 42 43 44 45 46 47 48 49 50
000
ASCA44 KEWX 291920
RWRMX

LATIN AMERICA AND CARIBBEAN REGIONAL WEATHER ROUNDUP
NATIONAL WEATHER SERVICE AUSTIN/SAN ANTONIO TX
200 PM CDT SUN MAY 29 2016

NOTE: "FAIR" INDICATED FEW OR NO CLOUDS BELOW 12,000 FEET WITH NO
SIGNIFICANT WEATHER AND/OR OBSTRUCTIONS TO VISIBILITY.

BAJA CALIFORNIA

CITY           SKY/WX    TMP DP  RH WIND       PRES   REMARKS
LORETO         MOSUNNY   84  61  45 NE17      29.87F
LA PAZ         PTSUNNY   90  48  24 S12       29.92F
MEXICALI       SUNNY     84  48  28 SE3       29.89F
S.J. DEL CABO  PTSUNNY   90  61  37 SE17      29.92F
TIJUANA        CLOUDY    63  54  72 NW6       30.05S

NORTHWESTERN MEXICO

CITY           SKY/WX    TMP DP  RH WIND       PRES   REMARKS
CULIACAN       PTSUNNY   99  75  47 SW6       29.87F HX 111
DURANGO        MOSUNNY   84  21  10 SW8       30.24F
GUAYMAS        MOSUNNY   90  63  40 CALM      29.84F HX  90
HERMOSILLO     MOSUNNY   95  34  11 SE8       29.94F HX  90
CD. JUAREZ     MOSUNNY   90  23   9 N6        30.03F
LOS MOCHIS     PTSUNNY   91  52  25 SW12      29.89F
OBREGON        MOSUNNY   93  48  21 SW2       29.86F HX  90

NORTHEASTERN MEXICO

CITY           SKY/WX    TMP DP  RH WIND       PRES   REMARKS
CHIHUAHUA      PTSUNNY   88  32  13 SW5       30.15F
MATAMOROS      PTSUNNY   88  75  66 E17       30.01F HX  97
MONCLOVA       PTSUNNY   88  68  51 NE13      30.05F HX  91
MONTERREY      CLOUDY    84  70  61 E7        30.03F
NUEVO LAREDO   MOSUNNY   90  70  51 E16       30.02F HX  95
PIEDRAS NEGRAS   N/A    N/A N/A N/A MISG        N/A
REYNOSA        PTSUNNY   90  68  48 E18       29.98F HX  93
SALTILLO       MOSUNNY   84  68  58 N9        30.22F
TORREON        PTSUNNY   93  46  20 NW3       30.06F
CD. VICTORIA   MOSUNNY   91  72  52 SE17      29.98F HX  98

WESTERN MEXICO

CITY           SKY/WX    TMP DP  RH WIND       PRES   REMARKS
AGUASCALIENTES PTSUNNY   82  30  15 NE9       30.27F
COLIMA         MOSUNNY   90  70  51 W12       30.00F HX  95
DEL BAJIO      PTSUNNY   86  50  28 SW5       30.29F
GUADALAJARA    PTSUNNY   90  28  11 N6        30.19F
MANZANILLO     MOSUNNY   84  68  58 SW12      29.90S
MAZATLAN       MOSUNNY   88  70  55 W9        29.90F HX  92
P. VALLARTA    PTSUNNY   84  73  70 SW12      29.89F HX  91
URUAPAN        CLOUDY    79  61  53 S7        30.20F
ZACATECAS        N/A    N/A N/A N/A MISG        N/A

CENTRAL MEXICO

CITY           SKY/WX    TMP DP  RH WIND       PRES   REMARKS
CUERNAVACA     PTSUNNY   82  59  44 CALM      30.17F
MEXICO CITY    PTSUNNY   75  46  35 N8        30.37F
MORELIA        PTSUNNY   84  54  34 CALM      30.24F
POZA RICA      PTSUNNY   95  75  52 E7        29.98F HX 107
PUEBLA         MOSUNNY   73  52  46 E6        30.37F
QUERETARO      MOSUNNY   84  52  32 S9        30.31F
S. LUIS POTOSI MOSUNNY   82  48  30 E5        30.25F
TAMPICO        MOSUNNY   90  75  62 SE14      29.98F HX 100
TOLUCA         MOSUNNY   77  50  38 NE7       30.44F

SOUTHERN MEXICO

CITY           SKY/WX    TMP DP  RH WIND       PRES   REMARKS
ACAPULCO       MOSUNNY   88  77  70 SW7       29.89F HX 100
B. DE HUATULCO   N/A    N/A N/A N/A MISG        N/A
OAXACA         PTSUNNY   81  55  41 NW2       30.23F
P. ESCONDIDO   MOSUNNY   86  79  79 S10       29.99F HX  99
VERACRUZ       MOSUNNY   91  75  59 E9        29.92F HX 102
ZIHUATANEJO    MOSUNNY   90  75  62 W6        29.91F HX 100

YUCATAN PENINSULA

CITY           SKY/WX    TMP DP  RH WIND       PRES   REMARKS
CAMPECHE       MOSUNNY   90  77  66 NW12G23   29.90F HX 102
CANCUN         MOSUNNY   90  73  58 NE12      30.01F HX  98
CHETUMAL       MOSUNNY   90  75  62 SE13      29.95F HX 100
CD. DEL CARMEN SUNNY     97  66  36 E10       29.90F HX 100
COZUMEL        PTSUNNY   84  75  74 E13       30.00S HX  92
MERIDA         PTSUNNY   99  70  39 NE5       29.95F HX 105
MINATITLAN     SUNNY     88  68  51 N12       29.86F HX  91
TAPACHULA      PTSUNNY   88  79  74 S6        29.85F HX 102
TUX. GUTIERREZ MOSUNNY   93  63  36 NW9       29.93F HX  94
VILLAHERMOSA   MOSUNNY   95  77  55 NE9       29.92F HX 109

CENTRAL AMERICA

CITY           SKY/WX    TMP DP  RH WIND       PRES   REMARKS
BELIZE CITY    MOSUNNY   90  79  70 NE13      29.94F HX 105

CARIBBEAN

CITY           SKY/WX    TMP DP  RH WIND       PRES   REMARKS
ARUBA          MOSUNNY   91  77  62 E20       29.86F HX 105
CURACAO        MOSUNNY   88  73  62 SE15      29.89F HX  96
KINGSTON       LGT RAIN  84  75  74 SE8       29.92F HX  92
NASSAU         MOSUNNY   88  72  58 CALM      30.06  THUNDER HX  94
SAN JUAN       PTSUNNY   82  75  78 E10       30.00S
SANTO DOMINGO  MOSUNNY   86  75  70 S9        29.94F HX  95
ST. CROIX      MOSUNNY   88  77  70 E15       30.00  HX 100
ST. KITTS      MOSUNNY   84  73  70 E12       30.00S HX  91
ST. MAARTEN    PTSUNNY   86  75  70 E13       30.00S HX  95
ST. THOMAS     SUNNY     88  75  66 SE15G23   29.99  HX  97

$$




USA.gov is the U.S. government's official web portal to all federal, state and local government web resources and services.